[[{"header":{"parameterUnit":"m.s-1","parameterCategory":1,"la1":30.2991,"la2":30.254,"lo1":-89.0895,"lo2":-89.0444,"dy":0.0017,"dx":0.0017,"nx":28,"ny":28,"refTime":"2024-12-12T09:00:00:Z","depth":0,"parameterNumber":2,"parameterNumberName":"U-component_of_WINDS"},"data":[0,0,0,0,0,0,0,0,0,0,0,0,0,0,0,0,0,0,0,0,0,0,0,0,0,0,0,0,0,0,0,0,0,0,0,0,0,0,0,0,0,0,0,0,0,0,0,0,0,0,0,0,0,0,0,0,0,0,-5.876,-5.876,0,-5.8766,-5.8766,-5.8766,-5.857,-5.8565,-5.8559,-5.8554,-5.8564,-5.8569,-5.8574,0,0,0,0,0,0,0,0,0,0,0,0,0,-5.8583,-5.8588,-5.876,-5.876,-5.876,-5.8765,-5.8766,-5.8766,-5.8571,-5.8564,-5.8558,-5.8552,-5.8562,-5.8568,-5.8574,0,0,0,0,0,0,0,0,0,0,0,0,0,-5.8632,-5.8589,-5.876,-5.8663,-5.8655,-5.8765,-5.8766,-5.8766,-5.8572,-5.8564,-5.8556,-5.8549,-5.856,-5.8567,-5.8575,-5.8779,0,0,-5.8599,-5.8602,0,0,0,0,0,0,0,0,-5.863,-5.8639,-5.8677,-5.867,-5.8661,-5.8659,-5.8706,-5.877,-5.8574,-5.8604,-5.8554,-5.8545,-5.8602,-5.8606,-5.8624,-5.878,-5.878,-5.8599,-5.8604,-5.8607,-5.8609,0,0,0,0,0,0,0,-5.8626,-5.8637,-5.8762,-5.8678,-5.8668,-5.8621,-5.8619,-5.8718,-5.8647,-5.86,-5.8586,-5.8589,-5.8596,-5.8617,-5.8623,-5.878,-5.8599,-5.8606,-5.8611,-5.8614,-5.9105,-5.9113,0,0,0,0,0,0,-5.8636,-5.8636,-5.8762,-5.8762,-5.8625,-5.863,-5.8628,-5.8667,-5.8645,-5.8634,-5.8596,-5.858,-5.8608,-5.8614,-5.8622,-5.886,-5.8607,-5.8614,-5.8619,-5.9096,-5.9107,-5.9116,0,0,0,0,0,0,-5.8633,-5.8649,-5.8762,-5.8695,-5.8706,-5.8642,-5.8687,-5.8672,-5.8692,-5.8642,-5.8628,-5.8631,-5.8602,-5.8612,-5.8742,-5.8858,-5.8618,-5.8625,-5.9086,-5.91,-5.9111,-5.9338,0,0,0,0,0,0,-5.8629,-5.8649,-5.8725,-5.8698,-5.871,-5.8881,-5.8694,-5.8677,-5.8706,-5.8685,-5.8671,-5.8661,-5.8597,-5.8731,-5.8749,-5.8864,-5.8631,-5.9076,-5.9092,-5.9107,-5.932,-5.9357,-5.9389,0,0,0,0,0,-5.8623,-5.8789,-5.873,-5.8746,-5.8804,-5.8888,-5.8894,-5.8816,-5.8716,-5.8793,-5.876,-5.8661,-5.8843,-5.8746,-5.8765,-5.8884,-5.9068,-5.9088,-5.9106,-5.9305,-5.935,-5.9388,0,0,0,0,0,0,-5.8832,-5.8784,-5.8718,-5.888,-5.889,-5.8854,-5.8948,-5.8866,-5.8905,-5.8884,-5.8786,-5.8785,-5.8931,-5.892,-5.8814,-5.9081,-5.8938,-5.8961,-5.9082,-5.9125,-5.9159,-5.9158,-5.8637,0,0,0,0,0,-5.8897,-5.8968,-5.8922,-5.907,-5.9078,-5.9014,-5.9047,-5.8986,-5.8992,-5.8995,-5.8972,-5.8983,-5.9041,-5.9082,-5.9134,-5.9318,-5.9312,-5.9409,-5.9443,-5.9472,-5.9493,-5.959,-5.9633,-5.9178,-5.9178,-5.9178,0,0,-5.9032,-5.9015,-5.9066,-5.9112,-5.9112,-5.9189,-5.9018,-5.9106,-5.9162,-5.9008,-5.9129,-5.9114,-5.9119,-5.9277,-5.9346,-5.9273,-5.9618,-5.9496,-5.9519,-5.9525,-5.9614,-5.9658,-5.9696,-5.9191,-5.9189,-5.9187,0,0,-5.9317,-5.9311,-5.9434,-5.9437,-5.9439,-5.9395,-5.9425,-5.9403,-5.9386,-5.9506,-5.9392,-5.9458,-5.9562,-5.9571,-5.9589,-5.9879,-5.979,-5.9899,-6.0079,-6.0174,-6.021,-6.0241,-6.0346,-6.0384,-5.9921,-5.9921,-5.9922,0,-5.9485,-5.9595,-5.9508,-5.9604,-5.9628,-5.9492,-5.9616,-5.9624,-5.9644,-5.9664,-5.9582,-5.9709,-5.9704,-5.9862,-5.9933,-5.9952,-5.9984,-5.99,-6.0212,-6.0242,-6.027,-6.0369,-6.0408,-5.9935,-5.9933,-5.9932,-5.993,0,-5.9802,-5.988,-5.9979,-6.0001,-6.0036,-6.0146,-6.0076,-6.0123,-6.006,-6.0025,-6.0149,-6.0138,-6.0185,-6.0218,-6.0157,-6.0369,-6.0323,-6.0229,-6.0083,-6.0329,-6.0419,-6.0456,-5.9954,-5.9949,-5.9945,-5.9942,0,0,-6.0218,-6.019,-6.0228,-6.0236,-6.0229,-6.0288,-6.0393,-6.0438,-6.0481,-6.0499,-6.0585,-6.0677,-6.0589,-6.061,-6.0549,-6.0633,-6.0865,-6.0527,-6.0526,-6.0591,-6.1098,-6.1169,-6.1214,-6.0805,-6.0812,-6.0818,-6.1097,0,-6.0495,-6.067,-6.0595,-6.0778,-6.085,-6.0722,-6.0813,-6.082,-6.0791,-6.0848,-6.0816,-6.0882,-6.0761,-6.0773,-6.0851,-6.082,-6.0965,-6.0799,-6.0885,-6.0889,-6.0888,-6.1261,-6.1337,-6.1601,-6.1132,-6.1138,-6.1142,0,-6.0841,-6.0873,-6.1064,-6.1044,-6.1071,-6.1155,-6.119,-6.1247,-6.1252,-6.1225,-6.1249,-6.117,-6.1272,-6.1127,-6.1267,-6.1156,-6.1187,-6.1178,-6.1186,-6.1191,-6.1031,-6.1277,-6.1684,-6.1724,-6.1197,-6.1193,-6.1189,0,-6.1125,-6.1217,-6.1342,-6.1354,-6.1334,-6.1396,-6.1391,-6.1388,-6.142,-6.1453,-6.1473,-6.1517,-6.1542,-6.1578,-6.1513,-6.1414,-6.1663,-6.1513,-6.1644,-6.1646,-6.1702,-6.1699,-6.212,-6.1723,-6.1723,-6.1722,-6.1721,0,-6.1442,-6.1564,-6.147,-6.1548,-6.1681,-6.1594,-6.1728,-6.1709,-6.1709,-6.1781,-6.1674,-6.1745,-6.1654,-6.1717,-6.1667,-6.1791,-6.1803,-6.1785,-6.177,-6.1794,-6.1797,-6.1813,-6.1793,-6.1732,-6.173,-6.1728,-6.1726,0,-6.1782,-6.1724,-6.1853,-6.1824,-6.182,-6.192,-6.1895,-6.1967,-6.193,-6.2023,-6.204,-6.1984,-6.2052,-6.1991,-6.2056,-6.2022,-6.2188,-6.2147,-6.2186,-6.2175,-6.2309,-6.2298,-6.2755,-6.2811,-6.2379,-6.2383,-6.2387,0,-6.1988,-6.2078,-6.206,-6.21,-6.2102,-6.2168,-6.2201,-6.212,-6.2158,-6.2172,-6.2242,-6.2301,-6.2343,-6.2458,-6.2423,-6.2473,-6.2432,-6.2589,-6.2439,-6.2461,-6.2435,-6.243,-6.2439,-6.262,-6.2625,-6.2629,-6.2633,0,-6.2359,-6.2326,-6.2376,-6.2418,-6.246,-6.2489,-6.2509,-6.2549,-6.2466,-6.2515,-6.2582,-6.2616,-6.2682,-6.2743,-6.2781,-6.2777,-6.2693,-6.268,-6.2713,-6.2739,-6.2758,-6.2749,-6.2269,-6.267,-6.2666,-6.2664,-6.2662,-6.266,-6.2638,-6.2713,-6.2711,-6.2772,-6.2779,-6.2801,-6.2866,-6.2838,-6.2893,-6.294,-6.2889,-6.2973,-6.2977,-6.302,-6.3026,-6.3091,-6.3025,-6.3073,-6.3085,-6.3098,-6.3118,-6.2748,-6.3098,-6.3096,-6.3095,-6.3094,-6.3094,0,-6.3003,-6.2996,-6.3053,-6.3085,-6.3133,-6.3048,-6.3067,-6.3113,-6.3187,-6.3197,-6.3242,-6.3321,-6.3379,-6.3349,-6.34,-6.3457,-6.342,-6.3474,-6.3468,-6.3469,-6.3173,-6.314,-6.3503,-6.3503,-6.3503,-6.3503,-6.3503,-6.3503,-6.3199,-6.3321,-6.3289,-6.3414,-6.3406,-6.3486,-6.3504,-6.3525,-6.3532,-6.3625,-6.3673,-6.3653,-6.3648,-6.3697,-6.3748,-6.3737,-6.3761,-6.3829,-6.3806,-6.353,-6.349,-6.3451,-6.3419,-6.3835,-6.3836,-6.4095,-6.4098,-6.4099]},{"header":{"parameterUnit":"m.s-1","parameterCategory":1,"la1":30.2991,"la2":30.254,"lo1":-89.0895,"lo2":-89.0444,"dy":0.0017,"dx":0.0017,"nx":28,"ny":28,"refTime":"2024-12-12T09:00:00:Z","depth":0,"parameterNumber":3,"parameterNumberName":"V-component_of_WINDS"},"data":[0,0,0,0,0,0,0,0,0,0,0,0,0,0,0,0,0,0,0,0,0,0,0,0,0,0,0,0,0,0,0,0,0,0,0,0,0,0,0,0,0,0,0,0,0,0,0,0,0,0,0,0,0,0,0,0,0,0,-2.1161,-2.116,0,-2.1083,-2.1082,-2.1081,-2.1072,-2.1073,-2.1073,-2.1074,-2.0987,-2.0985,-2.0982,0,0,0,0,0,0,0,0,0,0,0,0,0,-2.1294,-2.1292,-2.1161,-2.116,-2.1159,-2.1083,-2.1082,-2.1081,-2.1072,-2.1073,-2.1074,-2.1075,-2.0988,-2.0985,-2.0981,0,0,0,0,0,0,0,0,0,0,0,0,0,-2.1228,-2.1291,-2.1162,-2.1146,-2.1144,-2.1083,-2.1082,-2.1081,-2.1072,-2.1073,-2.1074,-2.1075,-2.099,-2.0985,-2.0981,-2.0929,0,0,-2.0967,-2.0965,0,0,0,0,0,0,0,0,-2.1232,-2.1223,-2.1149,-2.1147,-2.1144,-2.1089,-2.1097,-2.1029,-2.1071,-2.1099,-2.1074,-2.1076,-2.102,-2.1013,-2.0995,-2.0925,-2.0921,-2.0966,-2.0964,-2.0962,-2.096,0,0,0,0,0,0,0,-2.1236,-2.1226,-2.113,-2.1148,-2.1145,-2.114,-2.1132,-2.1084,-2.1053,-2.1096,-2.1096,-2.1087,-2.1019,-2.1,-2.0993,-2.092,-2.0966,-2.0962,-2.096,-2.0958,-2.0796,-2.0795,0,0,0,0,0,0,-2.1245,-2.123,-2.1133,-2.1128,-2.1192,-2.1136,-2.1127,-2.1105,-2.1054,-2.1047,-2.1086,-2.1087,-2.1007,-2.0998,-2.099,-2.0921,-2.0962,-2.0957,-2.0955,-2.0798,-2.0796,-2.0794,0,0,0,0,0,0,-2.1248,-2.1236,-2.1136,-2.1179,-2.1166,-2.1133,-2.1108,-2.1103,-2.1084,-2.1046,-2.104,-2.1073,-2.1007,-2.0996,-2.0943,-2.0918,-2.0955,-2.0951,-2.0799,-2.0797,-2.0795,-2.0787,0,0,0,0,0,0,-2.1252,-2.1238,-2.122,-2.1179,-2.1163,-2.1093,-2.1107,-2.1101,-2.1077,-2.1077,-2.1032,-2.1025,-2.1008,-2.095,-2.0939,-2.0913,-2.0948,-2.0801,-2.0798,-2.0796,-2.0789,-2.0784,-2.0781,0,0,0,0,0,-2.1257,-2.1221,-2.1219,-2.1207,-2.1141,-2.1092,-2.1083,-2.1065,-2.1075,-2.1055,-2.103,-2.1027,-2.0924,-2.0945,-2.0932,-2.0904,-2.0803,-2.0799,-2.0796,-2.0791,-2.0785,-2.0781,0,0,0,0,0,0,-2.1259,-2.1215,-2.1213,-2.1163,-2.1131,-2.109,-2.1065,-2.106,-2.1023,-2.1025,-2.1002,-2.0992,-2.0938,-2.0916,-2.094,-2.0848,-2.0864,-2.0857,-2.0864,-2.0859,-2.0855,-2.086,-2.0944,0,0,0,0,0,-2.1254,-2.122,-2.1183,-2.1142,-2.1126,-2.1098,-2.1076,-2.1065,-2.103,-2.1016,-2.0987,-2.0951,-2.091,-2.0884,-2.0844,-2.0786,-2.0773,-2.0761,-2.0756,-2.0753,-2.0747,-2.0709,-2.0701,-2.0782,-2.0783,-2.0783,0,0,-2.1242,-2.1214,-2.1194,-2.1141,-2.1116,-2.1077,-2.1087,-2.1048,-2.1018,-2.1009,-2.0957,-2.0934,-2.0892,-2.0835,-2.0808,-2.0815,-2.0722,-2.0749,-2.0746,-2.0742,-2.0704,-2.0697,-2.069,-2.078,-2.0781,-2.0781,0,0,-2.1201,-2.1179,-2.114,-2.1114,-2.1075,-2.1056,-2.1046,-2.1005,-2.099,-2.0937,-2.0928,-2.0891,-2.0823,-2.0792,-2.0767,-2.071,-2.0704,-2.0698,-2.0675,-2.0638,-2.0631,-2.0625,-2.06,-2.0592,-2.0693,-2.0693,-2.0692,0,-2.1191,-2.1137,-2.1121,-2.108,-2.1055,-2.1047,-2.1005,-2.0979,-2.0928,-2.0909,-2.0918,-2.0829,-2.08,-2.0733,-2.0719,-2.0701,-2.0685,-2.0702,-2.0634,-2.0628,-2.0622,-2.0598,-2.0589,-2.0692,-2.0692,-2.0692,-2.0692,0,-2.1124,-2.1086,-2.1059,-2.101,-2.0982,-2.0942,-2.0916,-2.0889,-2.0879,-2.0858,-2.0801,-2.0766,-2.0717,-2.0701,-2.0691,-2.063,-2.0635,-2.064,-2.0654,-2.0614,-2.059,-2.0581,-2.0691,-2.0691,-2.0691,-2.0691,0,0,-2.1083,-2.1025,-2.1015,-2.099,-2.0945,-2.0913,-2.0869,-2.0823,-2.0798,-2.0762,-2.0722,-2.0662,-2.0665,-2.0636,-2.0623,-2.0591,-2.0541,-2.0598,-2.0596,-2.0585,-2.0466,-2.046,-2.045,-2.0538,-2.0537,-2.0535,-2.0468,0,-2.1034,-2.0959,-2.0942,-2.0876,-2.0837,-2.0827,-2.0788,-2.0753,-2.0732,-2.0693,-2.0668,-2.0624,-2.0633,-2.0615,-2.0584,-2.0555,-2.0517,-2.0559,-2.0496,-2.0494,-2.0503,-2.0439,-2.0434,-2.0372,-2.0459,-2.0458,-2.0457,0,-2.0968,-2.0931,-2.0861,-2.0816,-2.0799,-2.0765,-2.0718,-2.0683,-2.0641,-2.0627,-2.0594,-2.0582,-2.0532,-2.0551,-2.0478,-2.0508,-2.048,-2.0461,-2.0458,-2.0449,-2.0471,-2.0424,-2.0353,-2.0342,-2.0443,-2.0444,-2.0445,0,-2.094,-2.0872,-2.082,-2.0801,-2.0748,-2.0724,-2.07,-2.066,-2.0632,-2.059,-2.057,-2.0523,-2.0495,-2.0457,-2.0431,-2.0448,-2.0358,-2.0376,-2.0341,-2.0341,-2.032,-2.0321,-2.024,-2.0309,-2.0309,-2.0309,-2.031,0,-2.0885,-2.0842,-2.0807,-2.0775,-2.0724,-2.0702,-2.0651,-2.0627,-2.0591,-2.055,-2.0539,-2.0501,-2.047,-2.0426,-2.0406,-2.0345,-2.0334,-2.0318,-2.0312,-2.0317,-2.0318,-2.0296,-2.0298,-2.0307,-2.0308,-2.0308,-2.0308,0,-2.0845,-2.082,-2.0762,-2.0717,-2.0704,-2.0668,-2.0627,-2.0593,-2.057,-2.0519,-2.0505,-2.0468,-2.0416,-2.0386,-2.0321,-2.0306,-2.0237,-2.0236,-2.0251,-2.0248,-2.0212,-2.0214,-2.0111,-2.0094,-2.0178,-2.0178,-2.0177,0,-2.0811,-2.0777,-2.0727,-2.07,-2.0676,-2.0633,-2.0603,-2.0579,-2.0548,-2.0496,-2.0466,-2.0413,-2.0369,-2.0285,-2.025,-2.0197,-2.0192,-2.0159,-2.0184,-2.0187,-2.0185,-2.0186,-2.018,-2.0154,-2.0153,-2.0152,-2.0152,0,-2.075,-2.0739,-2.0698,-2.0651,-2.0616,-2.0577,-2.0539,-2.0517,-2.0485,-2.045,-2.0397,-2.0363,-2.0294,-2.0239,-2.0183,-2.0155,-2.0145,-2.0145,-2.0133,-2.0135,-2.0144,-2.0133,-2.0235,-2.0146,-2.0147,-2.0147,-2.0148,-2.0148,-2.0709,-2.0676,-2.0635,-2.0588,-2.0556,-2.052,-2.0484,-2.0456,-2.0412,-2.0355,-2.0343,-2.0284,-2.0238,-2.0163,-2.0132,-2.0084,-2.0089,-2.0074,-2.0069,-2.0064,-2.006,-2.0155,-2.0074,-2.0074,-2.0074,-2.0074,-2.0074,0,-2.0644,-2.0616,-2.0574,-2.052,-2.0481,-2.0479,-2.0435,-2.0401,-2.0351,-2.031,-2.0267,-2.0202,-2.0148,-2.0107,-2.0051,-2.0019,-2.0012,-2.0004,-2.0004,-1.9996,-2.0061,-2.0075,-2.001,-2.001,-2.001,-2.001,-2.001,-2.001,-2.0606,-2.0549,-2.0532,-2.0457,-2.0428,-2.0373,-2.0347,-2.0311,-2.0277,-2.0206,-2.0161,-2.0136,-2.0093,-2.0032,-1.998,-1.997,-1.9947,-1.9938,-1.9926,-1.9986,-1.9993,-1.9999,-2.0012,-1.9935,-1.9935,-1.9865,-1.9864,-1.9864]}]]